Miscellaneous Local Product
Issued by NWS North Platte, NE

Home | Current Version | Previous Version | Graphics & Text | Print | Product List | Glossary On
Versions: 1 2 3 4 5 6 7 8 9 10 11 12 13 14 15 16 17 18 19 20 21 22 23 24 25 26 27 28 29 30 31 32 33 34 35 36 37 38 39 40 41 42 43 44 45 46 47 48 49 50
000
AXUS43 KLBF 300910
MISLBF


WESTERN AND NORTH CENTRAL NEBRASKA HOURLY WEATHER ROUNDUP
NATIONAL WEATHER SERVICE NORTH PLATTE NE
300 AM CST FRI JAN 30 2015

***STATIONS NOT REPORTING VARIABLES SUCH AS SKY/WEATHER OR
PRESSURE ARE PROVIDED BY THE NEBRASKA DEPARTMENT OF
ROADS...RAWS...AND APRS NETWORKS...AND ARE NOT UNDER
NATIONAL WEATHER SERVICE QUALITY CONTROL***

...OBSERVATIONS IN AND NEAR THE EASTERN PANHANDLE OF NEBRASKA...

CITY           SKY/WX    TMP DP  RH WIND       PRES   REMARKS
PINE RIDGE     PTCLDY    33  17  51 SW7       30.29F WCI  27
CHADRON        MOCLDY    33  18  53 SW9       30.29F WCI  25
ALLIANCE       MOCLDY    25  19  78 CALM      30.31F
SIDNEY         MOCLDY    28  19  69 S5        30.32F WCI  23
WHITECLAY        N/A     33  16  50 S16         N/A  WCI  22
CRESCENT LAKE    N/A     25  18  75 S6          N/A  WCI  18
LISCO            N/A     32  18  55 NE10        N/A  WCI  24
LEWELLEN         N/A     24  20  83 E3          N/A
$$

...OBSERVATIONS IN NORTH CENTRAL NEBRASKA...

CITY           SKY/WX    TMP DP  RH WIND       PRES   REMARKS
VALENTINE      CLEAR     20  16  84 NE3       30.38F
THEDFORD       PTCLDY    27  18  69 S3        30.39S
AINSWORTH      PTCLDY    24  19  84 S8        30.39F WCI  14
O`NEILL        CLEAR     20  19  96 SE6       30.47S WCI  13
ORD            PTCLDY    23  18  81 SE7       30.46F WCI  15
BROKEN BOW     PTCLDY    16  12  84 CALM      30.43F
BROWNLEE         N/A     25  18  74 S7          N/A  WCI  17
VALENTINE NWR    N/A     19  15  82 CALM        N/A
SPRINGVIEW       N/A     19  17  90 E3          N/A
HALSEY           N/A     26  15  63 S6          N/A  WCI  19
BREWSTER         N/A     22  20  91 CALM        N/A
ROSE             N/A     27  27 100 E7          N/A  WCI  19
NEWPORT          N/A     25  24  97 SE5         N/A  WCI  19
SARGENT          N/A     20  17  89 CALM        N/A
COMSTOCK         N/A     29  25  86 S9          N/A  WCI  20
CHAMBERS         N/A     17  12  80 S3          N/A
EWING            N/A     18  16  92 CALM        N/A
$$

...OBSERVATIONS IN SOUTHWEST NEBRASKA AND FAR NORTHEAST COLORADO...

CITY           SKY/WX    TMP DP  RH WIND       PRES   REMARKS
WRAY           FAIR      32  24  73 SE3       30.38S
IMPERIAL       MOCLDY    30  21  69 S8        30.40F WCI  22
OGALLALA       MOCLDY    24  19  82 CALM      30.39S
NORTH PLATTE   MOCLDY    17  13  84 CALM      30.42F
MCCOOK         PTCLDY    20  15  81 CALM      30.44F
LEXINGTON      PTCLDY    18  15  88 CALM      30.45F
BRADY            N/A     19  14  81 CALM        N/A
GOTHENBURG       N/A     18  11  75 CALM        N/A
CALLAWAY         N/A     21  17  83 S5          N/A  WCI  15
$$

...NORTH PLATTE AREA...

CITY           SKY/WX    TMP DP  RH WIND       PRES   REMARKS
AIRPORT        MOCLDY    17  13  84 CALM      30.42F
DOWNTOWN         N/A     19  16  86 CALM        N/A
$$

...SOME WEATHER OBSERVATIONS FROM AROUND THE REGION...

CITY           SKY/WX    TMP DP  RH WIND       PRES   REMARKS
DENVER         CLOUDY    36  23  59 SW6       30.26F WCI  31
LARAMIE        CLOUDY    27  23  85 S9        30.24F WCI  18
CHEYENNE       CLOUDY    27  20  75 SW5       30.24F WCI  22
SCOTTSBLUFF    MOCLDY    28  21  75 E8        30.29F WCI  20
RAPID CITY     CLEAR     22  13  68 E3        30.24F
PIERRE         CLEAR     21  18  88 SE12      30.39S WCI   9
WINNER         FAIR      24  20  84 SE12      30.41F WCI  13
SIOUX FALLS    CLOUDY    22  16  78 SE5       30.50S WCI  16
OMAHA          CLEAR     21  18  88 N3        30.55S
GRAND ISLAND   PTCLDY    20  17  88 SE3       30.51F
KANSAS CITY    CLEAR     24  20  84 NW7       30.53R WCI  16
WICHITA        PTCLDY    24  20  84 CALM      30.52S
HAYS           CLEAR     21  10  63 N5        30.49S WCI  15
LIBERAL        CLOUDY    32  21  64 S3        30.48F
GOODLAND       MOCLDY    28  21  75 S12       30.40F WCI  18
$$



USA.gov is the U.S. government's official web portal to all federal, state and local government web resources and services.